• Em Portugal
  • Lista de países
  • Para 7 dias
  • Temperatura da água
  • Mapas de satélite
  • Mapa do tempo
  • Widgets de tempo
  • user-avatar
    Iniciar Sessão

    Previsão horária em Cobe

    Hoje, 25 Setembro, Terça-feira

    Tempo Temperatura Precipitação Vento Pressão Humidade
    00:00 +24°C° 0 mm 3 m/s 756 mmHg 66%
    01:00 +24°C° 0.2 mm 3 m/s 756 mmHg 70%
    02:00 +24°C° 0.2 mm 3 m/s 756 mmHg 74%
    03:00 +24°C° 0 mm 3 m/s 756 mmHg 77%
    04:00 +22°C° 2.2 mm 3 m/s 756 mmHg 79%
    05:00 +22°C° 2.2 mm 3 m/s 756 mmHg 81%
    06:00 +21°C° 2.2 mm 3 m/s 756 mmHg 84%
    07:00 +21°C° 2.8 mm 3 m/s 756 mmHg 84%
    08:00 +21°C° 2.8 mm 3 m/s 756 mmHg 84%
    09:00 +21°C° 2.8 mm 3 m/s 756 mmHg 84%
    10:00 +23°C° 0.6 mm 2 m/s 756 mmHg 81%
    11:00 +24°C° 0.6 mm 2 m/s 756 mmHg 78%
    12:00 +24°C° 0.6 mm 2 m/s 756 mmHg 74%
    13:00 +25°C° 0 mm 2 m/s 756 mmHg 70%
    14:00 +26°C° 0 mm 2 m/s 755 mmHg 66%
    15:00 +27°C° 0 mm 2 m/s 755 mmHg 62%
    16:00 +26°C° 0 mm 2 m/s 755 mmHg 66%
    17:00 +25°C° 0 mm 3 m/s 755 mmHg 70%
    18:00 +24°C° 0 mm 3 m/s 756 mmHg 74%
    19:00 +22°C° 0 mm 4 m/s 756 mmHg 76%
    20:00 +22°C° 0 mm 4 m/s 756 mmHg 78%
    21:00 +21°C° 0 mm 5 m/s 756 mmHg 80%
    22:00 +21°C° 0 mm 5 m/s 756 mmHg 81%
    23:00 +21°C° 0 mm 5 m/s 756 mmHg 82%

    Amanhã, 26 Setembro, Quarta-feira

    Tempo Temperatura Precipitação Vento Pressão Humidade
    00:00 +21°C° 0 mm 5 m/s 756 mmHg 82%
    01:00 +20°C° 0 mm 5 m/s 756 mmHg 83%
    02:00 +20°C° 0 mm 5 m/s 756 mmHg 84%
    03:00 +20°C° 0 mm 5 m/s 756 mmHg 84%
    04:00 +20°C° 0 mm 5 m/s 756 mmHg 85%
    05:00 +20°C° 0 mm 5 m/s 756 mmHg 85%
    06:00 +20°C° 0 mm 5 m/s 756 mmHg 85%
    07:00 +21°C° 0 mm 5 m/s 756 mmHg 80%
    08:00 +22°C° 0 mm 5 m/s 756 mmHg 75%
    09:00 +25°C° 0 mm 5 m/s 756 mmHg 70%
    10:00 +26°C° 0 mm 5 m/s 756 mmHg 67%
    11:00 +27°C° 0 mm 5 m/s 756 mmHg 65%
    12:00 +28°C° 0 mm 5 m/s 756 mmHg 62%
    13:00 +27°C° 0.9 mm 5 m/s 755 mmHg 66%
    14:00 +26°C° 0.9 mm 5 m/s 755 mmHg 70%
    15:00 +26°C° 0.9 mm 5 m/s 755 mmHg 73%
    16:00 +25°C° 2.8 mm 5 m/s 755 mmHg 77%
    17:00 +23°C° 2.8 mm 5 m/s 755 mmHg 81%
    18:00 +22°C° 2.8 mm 6 m/s 755 mmHg 84%
    19:00 +22°C° 3.9 mm 6 m/s 755 mmHg 85%
    20:00 +22°C° 3.9 mm 6 m/s 755 mmHg 86%
    21:00 +21°C° 3.9 mm 5 m/s 755 mmHg 87%
    22:00 +21°C° 2.7 mm 6 m/s 755 mmHg 88%
    23:00 +21°C° 2.7 mm 6 m/s 754 mmHg 88%

    Depois de amanhã, 27 Setembro, Quinta-feira

    Tempo Temperatura Precipitação Vento Pressão Humidade
    00:00 +21°C° 2.7 mm 6 m/s 754 mmHg 89%
    01:00 +21°C° 4 mm 5 m/s 754 mmHg 90%
    02:00 +20°C° 4 mm 5 m/s 754 mmHg 90%
    03:00 +20°C° 4 mm 5 m/s 753 mmHg 91%
    04:00 +20°C° 2.4 mm 5 m/s 753 mmHg 90%
    05:00 +20°C° 2.4 mm 6 m/s 754 mmHg 89%
    06:00 +20°C° 2.4 mm 6 m/s 754 mmHg 89%
    07:00 +20°C° 2.4 mm 5 m/s 754 mmHg 89%
    08:00 +20°C° 2.4 mm 5 m/s 754 mmHg 88%
    09:00 +20°C° 2.4 mm 4 m/s 754 mmHg 88%
    10:00 +20°C° 0.8 mm 4 m/s 754 mmHg 85%
    11:00 +21°C° 0.8 mm 4 m/s 754 mmHg 82%
    12:00 +22°C° 0.8 mm 4 m/s 754 mmHg 78%
    13:00 +22°C° 0 mm 4 m/s 754 mmHg 78%
    14:00 +22°C° 0 mm 4 m/s 753 mmHg 77%
    15:00 +22°C° 0 mm 3 m/s 753 mmHg 76%
    16:00 +22°C° 0 mm 3 m/s 753 mmHg 77%
    17:00 +21°C° 0 mm 3 m/s 754 mmHg 79%
    18:00 +21°C° 0 mm 3 m/s 754 mmHg 80%
    19:00 +20°C° 0 mm 4 m/s 755 mmHg 82%
    20:00 +20°C° 0 mm 4 m/s 755 mmHg 83%
    21:00 +19°C° 0 mm 4 m/s 755 mmHg 85%
    22:00 +19°C° 0 mm 4 m/s 755 mmHg 85%
    23:00 +19°C° 0 mm 3 m/s 755 mmHg 86%

    28 Setembro, Sexta-feira

    Tempo Temperatura Precipitação Vento Pressão Humidade
    00:00 +19°C° 0 mm 3 m/s 755 mmHg 87%
    01:00 +18°C° 0 mm 3 m/s 755 mmHg 87%
    02:00 +18°C° 0 mm 3 m/s 755 mmHg 87%
    03:00 +18°C° 0 mm 3 m/s 755 mmHg 88%
    04:00 +18°C° 0 mm 3 m/s 756 mmHg 88%
    05:00 +18°C° 0 mm 4 m/s 756 mmHg 88%
    06:00 +18°C° 0 mm 4 m/s 756 mmHg 88%
    07:00 +20°C° 0 mm 4 m/s 757 mmHg 80%
    08:00 +21°C° 0 mm 4 m/s 757 mmHg 73%
    09:00 +23°C° 0 mm 4 m/s 757 mmHg 65%
    10:00 +26°C° 0 mm 3 m/s 757 mmHg 58%
    11:00 +27°C° 0 mm 3 m/s 757 mmHg 52%
    12:00 +29°C° 0 mm 3 m/s 757 mmHg 45%
    13:00 +29°C° 0 mm 3 m/s 756 mmHg 45%
    14:00 +29°C° 0 mm 2 m/s 756 mmHg 44%
    15:00 +29°C° 0 mm 2 m/s 756 mmHg 43%
    16:00 +28°C° 0 mm 2 m/s 756 mmHg 51%
    17:00 +26°C° 0 mm 2 m/s 756 mmHg 58%
    18:00 +25°C° 0 mm 2 m/s 757 mmHg 65%
    19:00 +24°C° 0 mm 2 m/s 757 mmHg 69%
    20:00 +23°C° 0 mm 2 m/s 757 mmHg 72%
    21:00 +21°C° 0 mm 2 m/s 758 mmHg 76%
    22:00 +21°C° 0 mm 2 m/s 758 mmHg 77%
    23:00 +20°C° 0 mm 2 m/s 758 mmHg 78%

    29 Setembro, Sábado

    Tempo Temperatura Precipitação Vento Pressão Humidade
    00:00 +20°C° 0 mm 2 m/s 757 mmHg 79%
    01:00 +20°C° 0.1 mm 2 m/s 757 mmHg 79%
    02:00 +20°C° 0.1 mm 2 m/s 757 mmHg 79%
    03:00 +20°C° 0.1 mm 2 m/s 757 mmHg 79%
    04:00 +20°C° 2.1 mm 3 m/s 757 mmHg 80%
    05:00 +20°C° 2.1 mm 3 m/s 757 mmHg 82%
    06:00 +21°C° 2.1 mm 3 m/s 756 mmHg 84%
    07:00 +21°C° 4.6 mm 3 m/s 756 mmHg 86%
    08:00 +21°C° 4.6 mm 3 m/s 756 mmHg 88%
    09:00 +21°C° 4.6 mm 3 m/s 756 mmHg 91%
    10:00 +22°C° 2.9 mm 3 m/s 756 mmHg 90%
    11:00 +22°C° 2.9 mm 3 m/s 756 mmHg 90%
    12:00 +22°C° 2.9 mm 3 m/s 755 mmHg 90%
    13:00 +22°C° 1.7 mm 3 m/s 755 mmHg 89%
    14:00 +24°C° 1.7 mm 3 m/s 754 mmHg 88%
    15:00 +23°C° 1.7 mm 4 m/s 754 mmHg 88%
    16:00 +23°C° 1.5 mm 4 m/s 754 mmHg 87%
    17:00 +22°C° 1.5 mm 4 m/s 754 mmHg 87%
    18:00 +22°C° 1.5 mm 4 m/s 754 mmHg 87%
    19:00 +22°C° 0.2 mm 4 m/s 754 mmHg 87%
    20:00 +22°C° 0.2 mm 4 m/s 754 mmHg 86%
    21:00 +22°C° 0.2 mm 5 m/s 754 mmHg 86%
    22:00 +22°C° 0.1 mm 4 m/s 754 mmHg 86%
    23:00 +22°C° 0.1 mm 4 m/s 753 mmHg 86%

    30 Setembro, Domingo

    Tempo Temperatura Precipitação Vento Pressão Humidade
    00:00 +22°C° 0.1 mm 4 m/s 752 mmHg 86%
    01:00 +22°C° 0.1 mm 4 m/s 752 mmHg 86%
    02:00 +22°C° 0.1 mm 4 m/s 751 mmHg 86%
    03:00 +23°C° 0.1 mm 4 m/s 751 mmHg 86%
    04:00 +23°C° 0.1 mm 5 m/s 750 mmHg 86%
    05:00 +23°C° 0.1 mm 5 m/s 750 mmHg 86%
    06:00 +23°C° 0.1 mm 5 m/s 749 mmHg 86%
    07:00 +25°C° 0.1 mm 5 m/s 748 mmHg 85%
    08:00 +25°C° 0.1 mm 5 m/s 748 mmHg 83%
    09:00 +26°C° 0.1 mm 5 m/s 747 mmHg 81%
    10:00 +27°C° 0.3 mm 6 m/s 746 mmHg 79%
    11:00 +28°C° 0.3 mm 6 m/s 745 mmHg 77%
    12:00 +28°C° 0.3 mm 7 m/s 744 mmHg 75%
    13:00 +29°C° 0.5 mm 9 m/s 742 mmHg 74%
    14:00 +29°C° 0.5 mm 11 m/s 740 mmHg 73%
    15:00 +29°C° 0.5 mm 13 m/s 738 mmHg 73%
    16:00 +29°C° 4.3 mm 16 m/s 732 mmHg 74%
    17:00 +29°C° 4.3 mm 19 m/s 727 mmHg 76%
    18:00 +29°C° 4.3 mm 22 m/s 722 mmHg 78%
    19:00 +29°C° 19 mm 24 m/s 721 mmHg 78%
    20:00 +29°C° 19 mm 26 m/s 720 mmHg 78%
    21:00 +29°C° 19 mm 28 m/s 718 mmHg 78%
    22:00 +28°C° 0.8 mm 23 m/s 724 mmHg 79%
    23:00 +28°C° 0.8 mm 17 m/s 730 mmHg 80%
    Mostrar mais